Weather History for Toledo, OH

Change the Weather History Date:

Tuesday, May 28, 2013

  Actual Average Record
Temperature  
Mean Temperature 67 °F 64 °F  
Max Temperature 80 °F 75 °F 96 °F (2012)
Min Temperature 54 °F 52 °F 37 °F (1971)
Degree Days  
Heating Degree Days 0 4  
Month to date heating degree days 157 197  
Since 1 July heating degree days 6134 6099  
Cooling Degree Days 2 3  
Month to date cooling degree days 63 36  
Year to date cooling degree days 63 44  
Growing Degree Days 16 (Base 50)    
Moisture  
Dew Point 59 °F    
Average Humidity 81    
Maximum Humidity 100    
Minimum Humidity 62    
Precipitation  
Precipitation 0.22 in 0.12 in 1.37 in (2000)
Month to date precipitation 1.59 3.21  
Year to date precipitation 13.48 13.00  
Snow  
Snow 0.00 in 0.00 in - ()
Month to date snowfall 0.0 0.1  
Since 1 July snowfall 22.4 37.6  
Snow Depth 0.00 in    
Sea Level Pressure  
Sea Level Pressure 29.91 in    
Wind  
Wind Speed 8 mph (SSW)    
Max Wind Speed 26 mph    
Max Gust Speed 35 mph    
Visibility 6 miles    
Events Fog , Rain , Thunderstorm    
T = Trace of Precipitation, MM = Missing Value Source: NWS Daily Summary

Daily Weather History Graph

Daily Weather History Graph

Search for Another Location

Airport:

Trip Planner

Search our weather history database for the weather conditions in past years. The results will help you decide how hot, cold, wet, or windy it might be!

Date:

Astronomy

May. 28, 2013 Rise Set
Actual Time 6:05 AM EDT 9:00 PM EDT
Civil Twilight 5:32 AM EDT 9:33 PM EDT
Nautical Twilight 4:50 AM EDT 10:15 PM EDT
Astronomical Twilight 4:02 AM EDT 11:03 PM EDT
Moon No Moon Rise 9:53 AM EDT
Length of Visible Light 16h 00m
Length of Day
14h 54m
Waning Gibbous, 83% of the Moon is Illuminated
May 28
Waning Gibbous
May 31
Last Quarter
Jun 8
New
Jun 16
First Quarter
Jun 23
Full

Hourly Weather History & Observations

Time (EDT) Temp. Dew Point Humidity Pressure Visibility Wind Dir Wind Speed Gust Speed Precip Events Conditions
12:16 AM 53.6 °F 51.8 °F 94% 29.97 in 6.0 mi East 4.6 mph - 0.03 in Rain Light Rain
12:28 AM 53.6 °F 51.8 °F 94% 29.97 in 7.0 mi East 4.6 mph - 0.03 in Rain Light Rain
12:52 AM 54.0 °F 53.1 °F 97% 29.97 in 4.0 mi East 3.5 mph - 0.05 in Rain Rain
1:13 AM 53.6 °F 53.6 °F 100% 29.95 in 4.0 mi East 3.5 mph - 0.04 in Rain Rain
1:35 AM 55.4 °F 53.6 °F 94% 29.94 in 4.0 mi ESE 3.5 mph - 0.06 in Rain Light Rain
1:52 AM 55.0 °F 53.1 °F 93% 29.94 in 5.0 mi ESE 3.5 mph - 0.06 in Rain Light Rain
2:33 AM 55.4 °F 55.4 °F 100% 29.93 in 6.0 mi Calm Calm - 0.00 in   Overcast
2:52 AM 57.0 °F 55.0 °F 93% 29.94 in 9.0 mi Calm Calm - 0.00 in   Overcast
3:52 AM 55.9 °F 54.0 °F 93% 29.93 in 6.0 mi Calm Calm - N/A   Mostly Cloudy
4:22 AM 55.4 °F 53.6 °F 94% 29.92 in 1.8 mi Calm Calm - N/A   Scattered Clouds
4:27 AM 53.6 °F 53.6 °F 100% 29.92 in 0.8 mi Calm Calm - N/A   Partly Cloudy
4:46 AM 53.6 °F 53.6 °F 100% 29.92 in 0.2 mi Calm Calm - N/A Fog Fog
4:52 AM 54.0 °F 53.1 °F 97% 29.93 in 0.5 mi North 3.5 mph - N/A Fog Fog
4:59 AM 53.6 °F 53.6 °F 100% 29.93 in 1.8 mi Calm Calm - N/A   Overcast
5:06 AM 53.6 °F 53.6 °F 100% 29.93 in 2.0 mi Calm Calm - N/A   Overcast
5:28 AM 55.4 °F 53.6 °F 94% 29.94 in 3.0 mi Calm Calm - N/A   Overcast
5:52 AM 55.0 °F 54.0 °F 96% 29.94 in 4.0 mi Calm Calm - N/A   Overcast
6:17 AM 53.6 °F 53.6 °F 100% 29.94 in 2.0 mi Calm Calm - N/A   Mostly Cloudy
6:41 AM 55.4 °F 53.6 °F 94% 29.94 in 3.0 mi Calm Calm - 0.00 in Rain Light Rain
6:49 AM 55.4 °F 53.6 °F 94% 29.94 in 2.0 mi Calm Calm - 0.01 in Rain Light Rain
6:52 AM 55.0 °F 54.0 °F 96% 29.95 in 2.0 mi Calm Calm - 0.01 in Rain Light Rain
7:22 AM 60.8 °F 59.0 °F 94% 29.93 in 4.0 mi SW 16.1 mph 27.6 mph 0.05 in Rain Light Rain
7:52 AM 63.0 °F 61.0 °F 93% 29.94 in 10.0 mi SW 8.1 mph - 0.08 in Rain Light Rain
8:49 AM 62.6 °F 60.8 °F 94% 29.96 in 6.0 mi NNE 4.6 mph - N/A   Mostly Cloudy
8:52 AM 62.1 °F 59.0 °F 90% 29.96 in 5.0 mi NE 4.6 mph - N/A   Overcast
9:52 AM 68.0 °F 63.0 °F 84% 29.95 in 10.0 mi South 4.6 mph - 0.00 in Rain Light Rain
10:52 AM 72.0 °F 63.0 °F 73% 29.93 in 10.0 mi SSW 10.4 mph 18.4 mph 0.00 in   Partly Cloudy
11:52 AM 75.0 °F 64.0 °F 69% 29.91 in 10.0 mi SW 9.2 mph 18.4 mph N/A   Clear
12:52 PM 78.1 °F 64.9 °F 64% 29.89 in 10.0 mi SW 17.3 mph 27.6 mph N/A   Mostly Cloudy
1:10 PM 73.4 °F 64.4 °F 73% 29.90 in 10.0 mi SW 12.7 mph 23.0 mph N/A   Mostly Cloudy
1:52 PM 79.0 °F 64.9 °F 62% 29.87 in 10.0 mi SW 11.5 mph 26.5 mph N/A   Overcast
2:52 PM 78.1 °F 64.0 °F 62% 29.87 in 10.0 mi SW 15.0 mph 25.3 mph N/A   Scattered Clouds
3:52 PM 75.0 °F 66.0 °F 73% 29.88 in 10.0 mi SW 13.8 mph 20.7 mph 0.00 in Rain Light Rain
4:45 PM 73.4 °F 66.2 °F 78% 29.87 in 4.0 mi SW 12.7 mph - 0.00 in Rain , Thunderstorm Thunderstorms and Rain
4:52 PM 72.0 °F 66.0 °F 81% 29.86 in 1.2 mi Variable 4.6 mph - 0.02 in Rain , Thunderstorm Thunderstorms and Rain
4:59 PM 71.6 °F 66.2 °F 83% 29.86 in 3.0 mi South 8.1 mph - 0.06 in Rain , Thunderstorm Light Thunderstorms and Rain
5:32 PM 71.6 °F 69.8 °F 94% 29.87 in 3.0 mi Calm Calm - 0.06 in Thunderstorm Overcast
5:52 PM 72.0 °F 68.0 °F 87% 29.86 in 3.0 mi SW 13.8 mph 19.6 mph 0.06 in   Overcast
6:52 PM 78.1 °F 64.9 °F 64% 29.86 in 10.0 mi SW 11.5 mph 21.9 mph N/A   Scattered Clouds
7:52 PM 78.1 °F 64.0 °F 62% 29.87 in 10.0 mi SW 11.5 mph - N/A   Mostly Cloudy
8:52 PM 75.9 °F 64.0 °F 67% 29.85 in 10.0 mi SSW 9.2 mph - N/A   Mostly Cloudy
9:52 PM 75.9 °F 64.0 °F 67% 29.86 in 10.0 mi SSW 8.1 mph - N/A   Overcast
10:52 PM 75.9 °F 63.0 °F 64% 29.86 in 10.0 mi SSW 12.7 mph 21.9 mph N/A   Overcast
11:52 PM 73.9 °F 61.0 °F 64% 29.86 in 10.0 mi SSW 13.8 mph 19.6 mph N/A   Scattered Clouds